COSMOS 1275 DEB, 13810

Orbit data source: Space-Track

COSMOS 1275 DEB, 13810 is space debris in LEO originally from a launch on Thu, 04 Jun 1981 UTC launched from the Plesetsk Missile And Space Complex (PKMTR). Debris objects in space refer to the collection of defunct objects orbiting the Earth. Examples of debris include non-operational satellites, rocket bodies, and fragments generated from explosions, collisions, or faulty payload assembly.

Loading next visibility...
Identifier
13810, 1981-053HE
Orbit
LEO
Country
Flag of CISCIS
Related business
Manufacturer
Unknown
Mission
Spacecraft
Bus & Motor
Unknown
Mass
Unknown
Launch date (UTC)
1981-06-04 (45 years ago)
Launch vehicle
Unknown
Launch site
Plesetsk Missile And Space Complex (PKMTR)
Object type
Payload
Rocket body
Debris
Shape & HBR
Unknown shape, 0.1 m
Radar Cross Section
Small (<0.1 m²)

Expand to show TLE details & history
Last TLE update: 2 days ago

TLE from 2 days ago
0 COSMOS 1275 DEB
1 13810U 81053HE  26043.60612319  .00000902  00000-0  99256-3 0  9998
2 13810  83.0099  97.2243 0120482 357.0695 154.9331 13.68049479139115
Epoch: 2026-02-12T14:32Z
TLE epoch observation values (Epoch: 2026-02-12T14:32:49.043Z)
Latitude
27.23655°
Longitude
-87.23541°
Altitude
1,090.698 km
Speed
7.269 km/s
True Right ascension
18h 14m 29s
True Declination
27° 06' 11"
Sunlit
Object was in daylight at epoch
Visualization orbit readout
Latitude
Unknown
Longitude
Unknown
Altitude
Unknown
Speed
Unknown
Apparent Right ascension
Unknown
Apparent Declination
Unknown
Sunlit
N/A
Visualization observer readout
Local Sidereal Time
19:44:38
Azimuth
Unknown
Elevation
Unknown
Doppler factor
Unknown
Orbital elements
Apogee altitude
1,092.676 km
Perigee altitude
914.799 km
Semi-major axis
7,381.874 km
Eccentricity
0.01205
Inclination
83.0099°
RAAN
97.2243°
Arg. of periapsis
357.0695°
True anomaly
155.51015°
Mean anomaly
154.9331°
Eccentric anomaly
155.22241°
Mean motion
3.4221 °/min
Orbital period
105.2 mins
BSTAR
0.00099256
Loading maneuver chart data...
Computing Atmospheric mass density...

Documentation

Showing up to 5 results
|